,,,PA_Meas_PMT16A,,PR_Meas_QMR101_102,,RH_Meas_QMH101,,SR_Meas_QMS101,,TA_Meas_QMH101,,GenWind,,GenWind,
date,time,status,PA,status,PR,status,RH,status,SR,status,TA,status,DirAvg,status,SpdAvg,
2008-08-16, 07:19:04,INVALID - VALUE NOT AVAILABLE,0,INVALID - VALUE NOT AVAILABLE,0,INVALID - VALUE NOT AVAILABLE,0,INVALID - VALUE NOT AVAILABLE,0,INVALID - VALUE NOT AVAILABLE,0,INVALID,360,INVALID,0,
2008-08-16, 07:20:04,VALID,1006.21,VALID,0,VALID,88.8917,VALID,131.737,VALID,25.1442,VALID,327,VALID,0.297656,
2008-08-16, 07:21:04,VALID,1006.24,VALID,0,VALID,88.8002,VALID,135.358,VALID,25.1637,VALID,321,VALID,0.331641,
2008-08-16, 07:22:04,VALID,1006.25,VALID,0,VALID,88.4645,VALID,143.001,VALID,25.1832,VALID,314,VALID,0.401172,
2008-08-16, 07:23:04,VALID,1006.27,VALID,0,VALID,88.3501,VALID,150.543,VALID,25.1832,VALID,312,VALID,0.389453,
2008-08-16, 07:24:04,VALID,1006.28,VALID,0,VALID,88.556,VALID,160.096,VALID,25.224,VALID,284,VALID,0.184375,
2008-08-16, 07:25:04,VALID,1006.32,VALID,0,VALID,88.2967,VALID,163.918,VALID,25.2221,VALID,283,VALID,0.359375,
2008-08-16, 07:26:04,VALID,1006.32,VALID,0,VALID,87.6711,VALID,170.152,VALID,25.2806,VALID,279,VALID,0.485156,
2008-08-16, 07:27:04,VALID,1006.33,VALID,0,VALID,87.5795,VALID,172.063,VALID,25.3019,VALID,279,VALID,0.0285156,
2008-08-16, 07:28:04,VALID,1006.33,VALID,0,VALID,86.9387,VALID,178.298,VALID,25.3409,VALID,279,VALID,0.510938,
2008-08-16, 07:29:04,VALID,1006.37,VALID,0,VALID,86.8548,VALID,190.064,VALID,25.3584,VALID,278,VALID,0.35,
2008-08-16, 07:30:04,VALID,1006.38,VALID,0,VALID,87.1371,VALID,190.868,VALID,25.4577,VALID,275,VALID,0.187891,
2008-08-16, 07:31:04,VALID,1006.41,VALID,0,VALID,86.5496,VALID,191.673,VALID,25.5162,VALID,277,VALID,0.193359,
2008-08-16, 07:32:04,VALID,1006.43,VALID,0,VALID,86.6031,VALID,194.489,VALID,25.5551,VALID,279,VALID,0.106641,
2008-08-16, 07:33:04,VALID,1006.44,VALID,0,VALID,87.8084,VALID,194.992,VALID,25.633,VALID,279,VALID,0,
2008-08-16, 07:34:04,VALID,1006.42,VALID,0,VALID,85.7334,VALID,193.785,VALID,25.672,VALID,282,VALID,0.344531,
2008-08-16, 07:35:04,VALID,1006.44,VALID,0,VALID,85.7028,VALID,194.589,VALID,25.7109,VALID,283,VALID,0.289063,
2008-08-16, 07:36:04,VALID,1006.46,VALID,0,VALID,85.3595,VALID,196.701,VALID,25.7694,VALID,282,VALID,0.696484,
2008-08-16, 07:37:04,VALID,1006.51,VALID,0,VALID,84.3525,VALID,204.746,VALID,25.7694,VALID,281,VALID,0.51875,
2008-08-16, 07:38:04,VALID,1006.52,VALID,0,VALID,85.5655,VALID,213.797,VALID,25.7889,VALID,291,VALID,0.137109,
2008-08-16, 07:39:04,VALID,1006.55,VALID,0,VALID,85.474,VALID,231.496,VALID,25.8473,VALID,315,VALID,0.234375,
2008-08-16, 07:40:04,VALID,1006.52,VALID,0,VALID,84.9781,VALID,260.056,VALID,25.9057,VALID,335,VALID,0.277734,
2008-08-16, 07:41:04,VALID,1006.52,VALID,0,VALID,84.1008,VALID,274.839,VALID,25.9252,VALID,304,VALID,0.48125,
2008-08-16, 07:42:04,VALID,1006.55,VALID,0,VALID,84.6577,VALID,283.889,VALID,25.9642,VALID,296,VALID,0.293359,
2008-08-16, 07:43:04,VALID,1006.55,VALID,0,VALID,86.0843,VALID,280.068,VALID,26.0635,VALID,296,VALID,0,
2008-08-16, 07:44:04,VALID,1006.56,VALID,0,VALID,84.3296,VALID,320.997,VALID,26.1415,VALID,300,VALID,0.494922,
2008-08-16, 07:45:04,VALID,1006.57,VALID,0,VALID,84.9018,VALID,347.344,VALID,26.2369,VALID,299,VALID,0.174609,
2008-08-16, 07:46:04,VALID,1006.57,VALID,0,VALID,84.1847,VALID,375.502,VALID,26.4122,VALID,269,VALID,0.251953,
2008-08-16, 07:47:04,VALID,1006.58,VALID,0,VALID,80.3703,VALID,381.737,VALID,26.5681,VALID,291,VALID,1.20117,
2008-08-16, 07:48:04,VALID,1006.59,VALID,0,VALID,82.2851,VALID,399.335,VALID,26.6091,VALID,319,VALID,0.325391,
2008-08-16, 07:49:04,VALID,1006.58,VALID,0,VALID,81.7358,VALID,404.766,VALID,26.6635,VALID,341,VALID,0.528516,
2008-08-16, 07:50:04,VALID,1006.55,VALID,0,VALID,82.0562,VALID,397.123,VALID,26.7804,VALID,327,VALID,0.184375,
2008-08-16, 07:51:04,VALID,1006.58,VALID,0,VALID,81.1865,VALID,447.002,VALID,26.9383,VALID,317,VALID,0.397266,
2008-08-16, 07:52:04,VALID,1006.58,VALID,0,VALID,81.8197,VALID,466.612,VALID,27.0357,VALID,7,VALID,0.301562,
2008-08-16, 07:53:04,VALID,1006.58,VALID,0,VALID,81.2705,VALID,474.557,VALID,27.2111,VALID,340,VALID,0.301953,
2008-08-16, 07:54:04,VALID,1006.59,VALID,0,VALID,78.1274,VALID,480.188,VALID,27.3475,VALID,349,VALID,0.979297,
2008-08-16, 07:55:04,VALID,1006.59,VALID,0,VALID,78.8597,VALID,495.775,VALID,27.3085,VALID,354,VALID,0.831641,
2008-08-16, 07:56:04,VALID,1006.6,VALID,0,VALID,80.2024,VALID,500.803,VALID,27.3475,VALID,356,VALID,0.505859,
2008-08-16, 07:57:04,VALID,1006.59,VALID,0,VALID,79.0352,VALID,473.551,VALID,27.5834,VALID,294,VALID,0.705078,
2008-08-16, 07:58:04,VALID,1006.55,VALID,0,VALID,79.4395,VALID,487.127,VALID,27.6593,VALID,286,VALID,0.693359,
2008-08-16, 07:59:04,VALID,1006.54,VALID,0,VALID,79.5692,VALID,496.178,VALID,27.7178,VALID,4,VALID,0.517969,
2008-08-16, 08:00:04,VALID,1006.53,VALID,0,VALID,79.8133,VALID,500.401,VALID,27.8152,VALID,298,VALID,0.323047,
2008-08-16, 08:01:04,VALID,1006.5,VALID,0,VALID,78.9284,VALID,508.245,VALID,27.9321,VALID,18,VALID,0.399609,
2008-08-16, 08:02:04,VALID,1006.56,VALID,0,VALID,76.8762,VALID,504.424,VALID,28.0491,VALID,292,VALID,0.271875,
2008-08-16, 08:03:04,VALID,1006.57,VALID,0,VALID,76.8381,VALID,498.088,VALID,28.2267,VALID,263,VALID,0.225781,
2008-08-16, 08:04:04,VALID,1006.59,VALID,0,VALID,78.3791,VALID,486.926,VALID,28.3805,VALID,29,VALID,0.404297,
2008-08-16, 08:05:04,VALID,1006.59,VALID,0,VALID,73.9315,VALID,488.535,VALID,28.5169,VALID,288,VALID,0.929688,
2008-08-16, 08:06:04,VALID,1006.57,VALID,0,VALID,74.1069,VALID,494.971,VALID,28.4389,VALID,204,VALID,0.979688,
2008-08-16, 08:07:04,VALID,1006.59,VALID,0,VALID,76.0981,VALID,480.59,VALID,28.205,VALID,261,VALID,0.646484,
2008-08-16, 08:08:04,VALID,1006.56,VALID,0,VALID,78.4249,VALID,490.345,VALID,28.205,VALID,269,VALID,0.0621094,
2008-08-16, 08:09:04,VALID,1006.57,VALID,0,VALID,75.7395,VALID,514.581,VALID,28.1855,VALID,287,VALID,1.12773,
2008-08-16, 08:10:04,VALID,1006.56,VALID,0,VALID,76.1896,VALID,526.045,VALID,28.1076,VALID,309,VALID,0.680469,
2008-08-16, 08:11:04,VALID,1006.56,VALID,0,VALID,77.0364,VALID,529.866,VALID,28.1292,VALID,286,VALID,1.06562,
2008-08-16, 08:12:04,VALID,1006.57,VALID,0,VALID,74.7173,VALID,528.157,VALID,28.0902,VALID,289,VALID,1.28867,
2008-08-16, 08:13:04,VALID,1006.59,VALID,0,VALID,76.449,VALID,528.76,VALID,28.0512,VALID,289,VALID,0.459375,
2008-08-16, 08:14:04,VALID,1006.59,VALID,0,VALID,74.5342,VALID,521.419,VALID,28.0902,VALID,284,VALID,0.680859,
2008-08-16, 08:15:04,VALID,1006.58,VALID,0,VALID,76.243,VALID,496.077,VALID,28.1292,VALID,312,VALID,0.401953,
2008-08-16, 08:16:04,VALID,1006.57,VALID,0,VALID,75.3886,VALID,528.056,VALID,28.2267,VALID,290,VALID,0.320313,
2008-08-16, 08:17:04,VALID,1006.57,VALID,0,VALID,76.7236,VALID,533.989,VALID,28.3241,VALID,215,VALID,0.308594,
2008-08-16, 08:18:04,VALID,1006.56,VALID,0,VALID,77.0059,VALID,536,VALID,28.4801,VALID,252,VALID,0.399219,
2008-08-16, 08:19:04,VALID,1006.57,VALID,0,VALID,74.0383,VALID,543.342,VALID,28.6534,VALID,273,VALID,1.20234,
2008-08-16, 08:20:04,VALID,1006.58,VALID,0,VALID,74.6791,VALID,540.727,VALID,28.7314,VALID,212,VALID,0.675781,
2008-08-16, 08:21:04,VALID,1006.61,VALID,0,VALID,74.6715,VALID,533.486,VALID,28.7509,VALID,322,VALID,0.634766,
2008-08-16, 08:22:04,VALID,1006.63,VALID,0,VALID,72.8558,VALID,587.187,VALID,28.7314,VALID,205,VALID,0.541797,
2008-08-16, 08:23:04,VALID,1006.63,VALID,0,VALID,75.03,VALID,603.78,VALID,28.7097,VALID,206,VALID,0.176172,
2008-08-16, 08:24:04,VALID,1006.62,VALID,0,VALID,73.3746,VALID,642.698,VALID,28.8678,VALID,325,VALID,0.571484,
2008-08-16, 08:25:04,VALID,1006.59,VALID,0,VALID,71.9937,VALID,684.532,VALID,29.104,VALID,300,VALID,0.499219,
2008-08-16, 08:26:04,VALID,1006.56,VALID,0,VALID,70.6358,VALID,651.246,VALID,29.2188,VALID,264,VALID,0.290625,
2008-08-16, 08:27:04,VALID,1006.52,VALID,0,VALID,70.8723,VALID,677.493,VALID,29.1408,VALID,164,VALID,0.602344,
2008-08-16, 08:28:04,VALID,1006.51,VALID,0,VALID,72.9779,VALID,697.002,VALID,29.0823,VALID,280,VALID,0.727344,
2008-08-16, 08:29:04,VALID,1006.54,VALID,0,VALID,71.8946,VALID,417.336,VALID,29.1993,VALID,273,VALID,0.615234,
2008-08-16, 08:30:04,VALID,1006.51,VALID,0,VALID,70.5595,VALID,283.688,VALID,29.2405,VALID,341,VALID,0.0714844,
2008-08-16, 08:31:04,VALID,1006.49,VALID,0,VALID,71.0096,VALID,635.055,VALID,29.1993,VALID,201,VALID,1.02422,
2008-08-16, 08:32:04,VALID,1006.52,VALID,0,VALID,72.749,VALID,236.725,VALID,28.8483,VALID,191,VALID,0.997266,
2008-08-16, 08:33:04,VALID,1006.51,VALID,0,VALID,72.4057,VALID,202.534,VALID,28.5191,VALID,175,VALID,1.33203,
2008-08-16, 08:34:04,VALID,1006.52,VALID,0,VALID,73.3517,VALID,211.786,VALID,28.205,VALID,218,VALID,0.563672,
2008-08-16, 08:35:04,VALID,1006.51,VALID,0,VALID,74.9995,VALID,677.995,VALID,28.0296,VALID,218,VALID,0.330469,
2008-08-16, 08:36:04,VALID,1006.47,VALID,0,VALID,76.0676,VALID,404.665,VALID,28.1487,VALID,284,VALID,0.336719,
2008-08-16, 08:37:04,VALID,1006.48,VALID,0,VALID,74.2595,VALID,677.09,VALID,28.2462,VALID,317,VALID,0.751562,
2008-08-16, 08:38:04,VALID,1006.48,VALID,0,VALID,74.9995,VALID,652.553,VALID,28.3805,VALID,317,VALID,0.335938,
2008-08-16, 08:39:04,VALID,1006.47,VALID,0,VALID,73.5119,VALID,644.508,VALID,28.5776,VALID,143,VALID,0.205469,
2008-08-16, 08:40:04,VALID,1006.44,VALID,0,VALID,72.2226,VALID,643.905,VALID,28.6945,VALID,181,VALID,0.727734,
2008-08-16, 08:41:04,VALID,1006.43,VALID,0,VALID,75.9226,VALID,642.296,VALID,28.753,VALID,140,VALID,0.533984,
2008-08-16, 08:42:04,VALID,1006.42,VALID,0,VALID,75.3047,VALID,666.833,VALID,28.8895,VALID,226,VALID,0.544922,
2008-08-16, 08:43:04,VALID,1006.4,VALID,0,VALID,71.7649,VALID,682.722,VALID,29.0065,VALID,11,VALID,0.711719,
2008-08-16, 08:44:04,VALID,1006.41,VALID,0,VALID,74.4502,VALID,664.62,VALID,29.143,VALID,324,VALID,0.633984,
2008-08-16, 08:45:04,VALID,1006.45,VALID,0,VALID,69.8805,VALID,340.104,VALID,29.3185,VALID,210,VALID,1.07031,
2008-08-16, 08:46:04,VALID,1006.45,VALID,0,VALID,71.063,VALID,252.614,VALID,29.1018,VALID,205,VALID,0.797656,
2008-08-16, 08:47:04,VALID,1006.45,VALID,0,VALID,72.009,VALID,251.81,VALID,28.87,VALID,214,VALID,0.175,
2008-08-16, 08:48:04,VALID,1006.46,VALID,0,VALID,73.8552,VALID,400.944,VALID,28.7725,VALID,143,VALID,0.402734,
2008-08-16, 08:49:04,VALID,1006.44,VALID,0,VALID,72.6422,VALID,337.389,VALID,28.8115,VALID,1,VALID,0.931641,
2008-08-16, 08:50:04,VALID,1006.43,VALID,0,VALID,73.3593,VALID,415.526,VALID,28.7704,VALID,229,VALID,0.310937,
2008-08-16, 08:51:04,VALID,1006.42,VALID,0,VALID,73.5958,VALID,250.201,VALID,28.7725,VALID,276,VALID,0.342578,
2008-08-16, 08:52:04,VALID,1006.47,VALID,0,VALID,72.7185,VALID,289.621,VALID,28.7704,VALID,280,VALID,1.22227,
2008-08-16, 08:53:04,VALID,1006.51,VALID,0,VALID,73.9544,VALID,556.415,VALID,28.7898,VALID,283,VALID,0.319141,
2008-08-16, 08:54:04,VALID,1006.51,VALID,0,VALID,72.5507,VALID,316.773,VALID,28.8678,VALID,330,VALID,0.557813,
2008-08-16, 08:55:04,VALID,1006.52,VALID,0,VALID,72.1387,VALID,292.035,VALID,28.8505,VALID,357,VALID,0.657812,
2008-08-16, 08:56:04,VALID,1006.53,VALID,0,VALID,72.4896,VALID,416.029,VALID,28.909,VALID,344,VALID,0.283203,
2008-08-16, 08:57:04,VALID,1006.5,VALID,0,VALID,73.8476,VALID,341.914,VALID,28.9653,VALID,234,VALID,0.496094,
2008-08-16, 08:58:04,VALID,1006.53,VALID,0,VALID,74.0764,VALID,282.079,VALID,28.987,VALID,244,VALID,0.131641,
2008-08-16, 08:59:04,VALID,1006.5,VALID,0,VALID,72.276,VALID,291.934,VALID,28.909,VALID,285,VALID,1.12969,
2008-08-16, 09:00:04,VALID,1006.51,VALID,0,VALID,71.1469,VALID,513.173,VALID,28.7898,VALID,281,VALID,0.994141,
2008-08-16, 09:01:04,VALID,1006.48,VALID,0,VALID,72.4362,VALID,670.755,VALID,28.7119,VALID,356,VALID,0.735547,
2008-08-16, 09:02:04,VALID,1006.48,VALID,0,VALID,71.8107,VALID,411.805,VALID,28.6729,VALID,292,VALID,0.942187,
2008-08-16, 09:03:04,VALID,1006.48,VALID,0,VALID,74.0154,VALID,242.156,VALID,28.6924,VALID,304,VALID,0.257422,
2008-08-16, 09:04:04,VALID,1006.45,VALID,0,VALID,73.489,VALID,207.864,VALID,28.7335,VALID,253,VALID,0.258203,
2008-08-16, 09:05:04,VALID,1006.46,VALID,0,VALID,72.8711,VALID,223.25,VALID,28.7119,VALID,277,VALID,0.255469,
2008-08-16, 09:06:04,VALID,1006.45,VALID,0,VALID,73.7179,VALID,219.227,VALID,28.6729,VALID,217,VALID,0.376172,
2008-08-16, 09:07:04,VALID,1006.48,VALID,0,VALID,73.8704,VALID,222.445,VALID,28.6361,VALID,218,VALID,0.225781,
2008-08-16, 09:08:04,VALID,1006.47,VALID,0,VALID,73.1533,VALID,217.015,VALID,28.5364,VALID,254,VALID,0.414453,
2008-08-16, 09:09:04,VALID,1006.49,VALID,0,VALID,73.3288,VALID,182.321,VALID,28.4779,VALID,286,VALID,0.666406,
2008-08-16, 09:10:04,VALID,1006.49,VALID,0,VALID,73.3441,VALID,164.923,VALID,28.3415,VALID,297,VALID,1.01641,
2008-08-16, 09:11:04,VALID,1006.52,VALID,0,VALID,74.0459,VALID,146.721,VALID,28.2267,VALID,211,VALID,1.00547,
2008-08-16, 09:12:04,VALID,1006.47,VALID,0,VALID,75.236,VALID,136.866,VALID,28.0707,VALID,229,VALID,0.575391,
2008-08-16, 09:13:04,VALID,1006.46,VALID,0,VALID,75.2208,VALID,139.682,VALID,27.9711,VALID,227,VALID,0.230859,
2008-08-16, 09:14:04,VALID,1006.48,VALID,0,VALID,75.0529,VALID,194.086,VALID,27.9148,VALID,286,VALID,0.308203,
2008-08-16, 09:15:04,VALID,1006.46,VALID,0,VALID,76.3498,VALID,285.9,VALID,27.9343,VALID,243,VALID,0.545313,
2008-08-16, 09:16:04,VALID,1006.49,VALID,0,VALID,75.4496,VALID,438.153,VALID,27.9127,VALID,237,VALID,0.191016,
2008-08-16, 09:17:04,VALID,1006.52,VALID,0,VALID,75.6709,VALID,532.38,VALID,28.0101,VALID,229,VALID,0.428906,
2008-08-16, 09:18:04,VALID,1006.52,VALID,0,VALID,73.6568,VALID,513.977,VALID,28.1097,VALID,183,VALID,1.27227,
2008-08-16, 09:19:04,VALID,1006.49,VALID,0,VALID,73.2907,VALID,861.724,VALID,28.0707,VALID,172,VALID,1.91133,
2008-08-16, 09:20:04,VALID,1006.51,VALID,0,VALID,73.4051,VALID,809.23,VALID,28.0491,VALID,187,VALID,1.32187,
2008-08-16, 09:21:04,VALID,1006.49,VALID,0,VALID,73.7484,VALID,579.544,VALID,28.0686,VALID,201,VALID,0.992969,
2008-08-16, 09:22:04,VALID,1006.46,VALID,0,VALID,75.0453,VALID,721.539,VALID,28.1466,VALID,215,VALID,1.59844,
2008-08-16, 09:23:04,VALID,1006.47,VALID,0,VALID,72.6346,VALID,877.311,VALID,28.244,VALID,209,VALID,1.25547,
2008-08-16, 09:24:04,VALID,1006.46,VALID,0,VALID,74.435,VALID,835.276,VALID,28.3046,VALID,206,VALID,1.27422,
2008-08-16, 09:25:04,VALID,1006.45,VALID,0,VALID,73.1533,VALID,777.653,VALID,28.361,VALID,206,VALID,1.45273,
2008-08-16, 09:26:04,VALID,1006.44,VALID,0,VALID,72.8177,VALID,703.941,VALID,28.4021,VALID,199,VALID,1.22812,
2008-08-16, 09:27:04,VALID,1006.44,VALID,0,VALID,72.749,VALID,706.656,VALID,28.3241,VALID,181,VALID,1.46328,
2008-08-16, 09:28:04,VALID,1006.44,VALID,0,VALID,73.7102,VALID,752.311,VALID,28.322,VALID,166,VALID,0.976563,
2008-08-16, 09:29:04,VALID,1006.45,VALID,0,VALID,72.4057,VALID,732.802,VALID,28.283,VALID,165,VALID,1,
2008-08-16, 09:30:04,VALID,1006.47,VALID,0,VALID,74.1222,VALID,621.68,VALID,28.3025,VALID,175,VALID,0.897266,
2008-08-16, 09:31:04,VALID,1006.48,VALID,0,VALID,75.9608,VALID,642.999,VALID,28.3805,VALID,174,VALID,1.49727,
2008-08-16, 09:32:04,VALID,1006.51,VALID,0,VALID,76.4185,VALID,651.648,VALID,28.5971,VALID,206,VALID,0.514453,
2008-08-16, 09:33:04,VALID,1006.52,VALID,0,VALID,73.5119,VALID,543.744,VALID,28.7704,VALID,197,VALID,0.86875,
2008-08-16, 09:34:04,VALID,1006.52,VALID,0,VALID,74.8775,VALID,533.889,VALID,28.8873,VALID,242,VALID,0.575,
2008-08-16, 09:35:04,VALID,1006.49,VALID,0,VALID,73.8094,VALID,537.609,VALID,29.0628,VALID,221,VALID,0.182812,
2008-08-16, 09:36:04,VALID,1006.53,VALID,0,VALID,70.0026,VALID,493.764,VALID,29.0823,VALID,186,VALID,1.17539,
2008-08-16, 09:37:04,VALID,1006.53,VALID,0,VALID,71.4674,VALID,478.881,VALID,28.8873,VALID,194,VALID,1.22852,
2008-08-16, 09:38:04,VALID,1006.54,VALID,0,VALID,71.4445,VALID,475.964,VALID,28.7314,VALID,176,VALID,1.5457,
2008-08-16, 09:39:04,VALID,1006.53,VALID,0,VALID,70.9562,VALID,405.269,VALID,28.5559,VALID,166,VALID,1.525,
2008-08-16, 09:40:04,VALID,1006.52,VALID,0,VALID,72.2608,VALID,417.839,VALID,28.4021,VALID,164,VALID,1.88594,
2008-08-16, 09:41:04,VALID,1006.55,VALID,0,VALID,72.8329,VALID,348.652,VALID,28.2656,VALID,159,VALID,1.91055,
2008-08-16, 09:42:04,VALID,1006.53,VALID,0,VALID,74.1222,VALID,365.345,VALID,28.1466,VALID,145,VALID,1.35977,
2008-08-16, 09:43:04,VALID,1006.55,VALID,0,VALID,74.4197,VALID,396.721,VALID,28.1076,VALID,192,VALID,1.26719,
2008-08-16, 09:44:04,VALID,1006.5,VALID,0,VALID,74.2977,VALID,478.78,VALID,28.0101,VALID,193,VALID,1.58164,
2008-08-16, 09:45:04,VALID,1006.5,VALID,0,VALID,74.6562,VALID,532.782,VALID,28.0101,VALID,177,VALID,0.975391,
2008-08-16, 09:46:04,VALID,1006.49,VALID,0,VALID,78.1579,VALID,341.713,VALID,28.1076,VALID,196,VALID,0.605469,
2008-08-16, 09:47:04,VALID,1006.49,VALID,0,VALID,73.8247,VALID,529.363,VALID,28.1877,VALID,153,VALID,1.65313,
2008-08-16, 09:48:04,VALID,1006.47,VALID,0,VALID,73.0694,VALID,468.02,VALID,28.1855,VALID,155,VALID,1.2082,
2008-08-16, 09:49:04,VALID,1006.5,VALID,0,VALID,74.8469,VALID,605.389,VALID,28.2072,VALID,137,VALID,0.960547,
2008-08-16, 09:50:04,VALID,1006.46,VALID,0,VALID,72.7032,VALID,612.328,VALID,28.3415,VALID,145,VALID,0.611328,
2008-08-16, 09:51:04,VALID,1006.47,VALID,0,VALID,70.9028,VALID,502.111,VALID,28.4389,VALID,126,VALID,0.339063,
2008-08-16, 09:52:04,VALID,1006.45,VALID,0,VALID,69.1634,VALID,568.985,VALID,28.5169,VALID,155,VALID,1.175,
2008-08-16, 09:53:04,VALID,1006.46,VALID,0,VALID,69.1024,VALID,576.829,VALID,28.4779,VALID,144,VALID,1.625,
2008-08-16, 09:54:04,VALID,1006.44,VALID,0,VALID,70.4069,VALID,406.878,VALID,28.4411,VALID,171,VALID,0.95625,
2008-08-16, 09:55:04,VALID,1006.43,VALID,0,VALID,73.0542,VALID,370.373,VALID,28.4,VALID,171,VALID,1.68672,
2008-08-16, 09:56:04,VALID,1006.44,VALID,0,VALID,75.2436,VALID,468.623,VALID,28.3826,VALID,169,VALID,1.4418,
2008-08-16, 09:57:04,VALID,1006.39,VALID,0,VALID,73.0694,VALID,451.628,VALID,28.3003,VALID,219,VALID,1.1957,
2008-08-16, 09:58:04,VALID,1006.37,VALID,0,VALID,74.4884,VALID,483.306,VALID,28.361,VALID,277,VALID,0.464844,
2008-08-16, 09:59:04,VALID,1006.38,VALID,0,VALID,71.6428,VALID,383.044,VALID,28.4974,VALID,224,VALID,1.31719,
2008-08-16, 10:00:04,VALID,1006.37,VALID,0,VALID,70.9867,VALID,426.89,VALID,28.4584,VALID,196,VALID,1.2918,
2008-08-16, 10:01:04,VALID,1006.33,VALID,0,VALID,70.7045,VALID,412.811,VALID,28.3415,VALID,184,VALID,1.47734,
2008-08-16, 10:02:04,VALID,1006.35,VALID,0,VALID,71.0859,VALID,431.415,VALID,28.283,VALID,174,VALID,0.397656,
2008-08-16, 10:03:04,VALID,1006.36,VALID,0,VALID,73.5195,VALID,437.65,VALID,28.283,VALID,167,VALID,0.839063,
2008-08-16, 10:04:04,VALID,1006.36,VALID,0,VALID,73.0694,VALID,410.8,VALID,28.3805,VALID,172,VALID,0.45625,
2008-08-16, 10:05:04,VALID,1006.38,VALID,0,VALID,72.0624,VALID,436.141,VALID,28.4173,VALID,163,VALID,0.474219,
2008-08-16, 10:06:04,VALID,1006.38,VALID,0,VALID,71.9022,VALID,518.704,VALID,28.4758,VALID,217,VALID,1.06875,
2008-08-16, 10:07:04,VALID,1006.37,VALID,0,VALID,72.3904,VALID,547.163,VALID,28.5949,VALID,206,VALID,0.845312,
2008-08-16, 10:08:04,VALID,1006.38,VALID,0,VALID,71.9937,VALID,645.312,VALID,28.5949,VALID,217,VALID,1.28359,
2008-08-16, 10:09:04,VALID,1006.37,VALID,0,VALID,72.154,VALID,747.585,VALID,28.6144,VALID,204,VALID,0.970312,
2008-08-16, 10:10:04,VALID,1006.34,VALID,0,VALID,74.023,VALID,726.165,VALID,28.6144,VALID,207,VALID,1.11016,
2008-08-16, 10:11:04,VALID,1006.34,VALID,0,VALID,73.0542,VALID,820.191,VALID,28.5949,VALID,175,VALID,1.22461,
2008-08-16, 10:12:04,VALID,1006.31,VALID,0,VALID,73.9925,VALID,882.742,VALID,28.5754,VALID,294,VALID,0.867578,
2008-08-16, 10:13:04,VALID,1006.31,VALID,0,VALID,71.5589,VALID,969.728,VALID,28.8093,VALID,287,VALID,1.02617,
2008-08-16, 10:14:04,VALID,1006.29,VALID,0,VALID,73.0694,VALID,988.031,VALID,29.0845,VALID,248,VALID,0.658594,
2008-08-16, 10:15:04,VALID,1006.29,VALID,0,VALID,69.0566,VALID,1015.28,VALID,29.2578,VALID,207,VALID,1.8375,
2008-08-16, 10:16:04,VALID,1006.29,VALID,0,VALID,70.7197,VALID,1034.09,VALID,29.2773,VALID,188,VALID,1.06016,
2008-08-16, 10:17:04,VALID,1006.3,VALID,0,VALID,71.1927,VALID,1044.55,VALID,29.2968,VALID,178,VALID,1.73125,
2008-08-16, 10:18:04,VALID,1006.29,VALID,0,VALID,74.1527,VALID,1046.86,VALID,29.4138,VALID,157,VALID,0.648047,
2008-08-16, 10:19:04,VALID,1006.3,VALID,0,VALID,69.4762,VALID,1044.35,VALID,29.6868,VALID,227,VALID,0.766406,
2008-08-16, 10:20:04,VALID,1006.32,VALID,0,VALID,69.7203,VALID,945.794,VALID,29.7648,VALID,196,VALID,2.09023,
2008-08-16, 10:21:04,VALID,1006.33,VALID,0,VALID,71.1088,VALID,970.533,VALID,29.7258,VALID,224,VALID,0.912891,
2008-08-16, 10:22:04,VALID,1006.31,VALID,0,VALID,68.37,VALID,1001.41,VALID,29.6088,VALID,207,VALID,2.40352,
2008-08-16, 10:23:04,VALID,1006.34,VALID,0,VALID,67.8818,VALID,979.885,VALID,29.4918,VALID,266,VALID,1.00195,
2008-08-16, 10:24:04,VALID,1006.33,VALID,0,VALID,70.1704,VALID,977.371,VALID,29.611,VALID,279,VALID,1.73047,
2008-08-16, 10:25:04,VALID,1006.29,VALID,0,VALID,69.6212,VALID,981.394,VALID,29.8623,VALID,212,VALID,1.11992,
2008-08-16, 10:26:04,VALID,1006.29,VALID,0,VALID,67.157,VALID,975.058,VALID,29.9231,VALID,190,VALID,2.47773,
2008-08-16, 10:27:04,VALID,1006.28,VALID,0,VALID,67.63,VALID,987.126,VALID,29.728,VALID,222,VALID,2.15547,
2008-08-16, 10:28:04,VALID,1006.27,VALID,0,VALID,67.7063,VALID,981.494,VALID,29.5308,VALID,222,VALID,1.46055,
2008-08-16, 10:29:04,VALID,1006.29,VALID,0,VALID,74.9156,VALID,996.177,VALID,29.5135,VALID,257,VALID,1.03828,
2008-08-16, 10:30:04,VALID,1006.25,VALID,0,VALID,74.0841,VALID,986.824,VALID,29.6695,VALID,228,VALID,0.548828,
2008-08-16, 10:31:04,VALID,1006.21,VALID,0,VALID,69.8119,VALID,980.288,VALID,29.9988,VALID,273,VALID,0.989844,
2008-08-16, 10:32:04,VALID,1006.21,VALID,0,VALID,67.5156,VALID,980.589,VALID,30.0183,VALID,187,VALID,2.18906,
2008-08-16, 10:33:04,VALID,1006.24,VALID,0,VALID,71.7038,VALID,965.103,VALID,29.8038,VALID,214,VALID,1.06211,
2008-08-16, 10:34:04,VALID,1006.23,VALID,0,VALID,68.0878,VALID,926.788,VALID,29.9231,VALID,196,VALID,0.942187,
2008-08-16, 10:35:04,VALID,1006.18,VALID,0,VALID,69.5296,VALID,940.666,VALID,29.9231,VALID,195,VALID,0.553516,
2008-08-16, 10:36:04,VALID,1006.2,VALID,0,VALID,67.0197,VALID,955.549,VALID,29.9621,VALID,191,VALID,1.51016,
2008-08-16, 10:37:04,VALID,1006.16,VALID,0,VALID,70.6282,VALID,934.33,VALID,29.6695,VALID,204,VALID,1.59141,
2008-08-16, 10:38:04,VALID,1006.13,VALID,0,VALID,72.6041,VALID,908.285,VALID,29.7648,VALID,274,VALID,0.633594,
2008-08-16, 10:39:04,VALID,1006.08,VALID,0,VALID,67.508,VALID,949.515,VALID,30.0206,VALID,257,VALID,1.26602,
2008-08-16, 10:40:04,VALID,1006.04,VALID,0,VALID,67.508,VALID,979.684,VALID,30.2156,VALID,249,VALID,1.24492,
2008-08-16, 10:41:04,VALID,1006.02,VALID,0,VALID,67.6605,VALID,953.84,VALID,30.1766,VALID,243,VALID,1.34648,
2008-08-16, 10:42:04,VALID,1006,VALID,0,VALID,69.9187,VALID,964.198,VALID,30.1548,VALID,275,VALID,0.975391,
2008-08-16, 10:43:04,VALID,1006.03,VALID,0,VALID,70.9028,VALID,620.172,VALID,30.4302,VALID,130,VALID,0.677734,
2008-08-16, 10:44:04,VALID,1006,VALID,0,VALID,68.4616,VALID,1014.28,VALID,30.3155,VALID,148,VALID,1.58789,
2008-08-16, 10:45:04,VALID,1005.98,VALID,0,VALID,68.2098,VALID,1026.14,VALID,30.2546,VALID,302,VALID,0.702734,
2008-08-16, 10:46:04,VALID,1005.98,VALID,0,VALID,67.8589,VALID,613.434,VALID,30.4107,VALID,220,VALID,0.333984,
2008-08-16, 10:47:04,VALID,1005.95,VALID,0,VALID,65.3871,VALID,1029.97,VALID,30.3155,VALID,182,VALID,1.16719,
2008-08-16, 10:48:04,VALID,1005.9,VALID,0,VALID,70.8799,VALID,1027.15,VALID,30.1181,VALID,178,VALID,2.02969,
2008-08-16, 10:49:04,VALID,1005.9,VALID,0,VALID,67.5919,VALID,995.573,VALID,29.9598,VALID,204,VALID,1.89102,
2008-08-16, 10:50:04,VALID,1005.88,VALID,0,VALID,69.5754,VALID,987.729,VALID,29.7453,VALID,204,VALID,2.63008,
2008-08-16, 10:51:04,VALID,1005.84,VALID,0,VALID,72.1234,VALID,1006.43,VALID,29.4723,VALID,177,VALID,2.40547,